Location: Les Thiberg�res
(47.8554°N, 1.0978°W)
Time: 04:23:05
(UTC+00:00)

Cosmos 1842 Rocket - Pass Details

Date: 17 February 2020
Orbit: 604 x 635 km, 82.5° (Epoch: 29 March)

Event Time Altitude Azimuth Distance (km) Brightness Sun altitude
Rises 05:20:08 0° 195° (SSW) 2,905 6.8 -18.7°
Reaches altitude 10° 05:22:22 10° 198° (SSW) 2,006 6.0 -18.4°
Maximum altitude 05:26:47 66° 281° (W) 695 3.5 -17.6°
Drops below altitude 10° 05:31:17 10° 4° (N) 2,032 6.3 -16.9°
Sets 05:33:33 0° 8° (N) 2,946 7.1 -16.5°
